This is the latest recevied weather packets stored in our database for station/object 9W2CHF-3. If no packets are shown the sender has not sent any weather packets the latest 10 day(s).
| Time | Temp. | Humidity | Pressure | Rain* | Wind** | Luminosity | Snow |
|---|---|---|---|---|---|---|---|
| 1788441358 | 32.22° C | 77% | 1011.6 hPa | - | - | - | - |
| 1788440158 | 31.67° C | 77% | 1011.5 hPa | - | - | - | - |
| 1788438958 | 32.22° C | 76% | 1011.1 hPa | - | - | - | - |
| 1788437757 | 31.67° C | 77% | 1010.9 hPa | - | - | - | - |
| 1788436557 | 32.22° C | 74% | 1010.7 hPa | - | - | - | - |
| 1788435357 | 31.67° C | 75% | 1010.6 hPa | - | - | - | - |
| 1788434157 | 32.22° C | 72% | 1010.4 hPa | - | - | - | - |
| 1788432957 | 32.78° C | 70% | 1010.2 hPa | - | - | - | - |
| 1788431757 | 32.78° C | 64% | 1010.3 hPa | - | - | - | - |
| 1788430556 | 33.89° C | 59% | 1009.9 hPa | - | - | - | - |
| 1788429361 | 35° C | 55% | 1009.9 hPa | - | - | - | - |
| 1788428161 | 35° C | 53% | 1010 hPa | - | - | - | - |
| 1788426967 | 35.56° C | 51% | 1009.7 hPa | - | - | - | - |
| 1788425761 | 35.56° C | 51% | 1009.7 hPa | - | - | - | - |
| 1788424561 | 35.56° C | 50% | 1009.7 hPa | - | - | - | - |
| 1788423361 | 36.11° C | 47% | 1009.6 hPa | - | - | - | - |
| 1788422161 | 37.22° C | 44% | 1009.7 hPa | - | - | - | - |
| 1788420961 | 36.11° C | 46% | 1010 hPa | - | - | - | - |
| 1788419761 | 38.33° C | 45% | 1010.2 hPa | - | - | - | - |
| 1788418561 | 36.67° C | 49% | 1010.5 hPa | - | - | - | - |
| 1788417361 | 37.22° C | 46% | 1010.7 hPa | - | - | - | - |
| 1788416161 | 36.67° C | 45% | 1011.3 hPa | - | - | - | - |
| 1788414961 | 37.22° C | 44% | 1011.7 hPa | - | - | - | - |
| 1788413760 | 37.78° C | 43% | 1012 hPa | - | - | - | - |
| 1788412560 | 37.22° C | 44% | 1012.4 hPa | - | - | - | - |
* Rain since midnight (hover to see other rain measurements)
** Current wind speed in m/s (hover to see current wind gust speed)